Year,Month,Day,Hour,Minute,Value (Times are PST for temperature in C)
2018,08,08,00,00,20.50
2018,08,08,00,01,20.60
2018,08,08,00,02,20.60
2018,08,08,00,03,20.60
2018,08,08,00,04,20.70
2018,08,08,00,05,20.70
2018,08,08,00,06,20.70
2018,08,08,00,07,20.70
2018,08,08,00,08,20.70
2018,08,08,00,09,20.70
2018,08,08,00,10,20.70
2018,08,08,00,11,20.70
2018,08,08,00,12,20.70
2018,08,08,00,13,20.70
2018,08,08,00,14,20.70
2018,08,08,00,15,20.70
2018,08,08,00,16,20.80
2018,08,08,00,17,20.80
2018,08,08,00,18,20.80
2018,08,08,00,19,20.80
2018,08,08,00,20,20.80
2018,08,08,00,21,20.80
2018,08,08,00,22,20.70
2018,08,08,00,23,20.70
2018,08,08,00,24,20.70
2018,08,08,00,25,20.60
2018,08,08,00,26,20.60
2018,08,08,00,27,20.60
2018,08,08,00,28,20.50
2018,08,08,00,29,20.50
2018,08,08,00,30,20.50
2018,08,08,00,31,20.40
2018,08,08,00,32,20.40
2018,08,08,00,33,20.40
2018,08,08,00,34,20.40
2018,08,08,00,35,20.40
2018,08,08,00,36,20.40
2018,08,08,00,37,20.30
2018,08,08,00,38,20.30
2018,08,08,00,39,20.30
2018,08,08,00,40,20.30
2018,08,08,00,41,20.30
2018,08,08,00,42,20.30
2018,08,08,00,43,20.30
2018,08,08,00,44,20.20
2018,08,08,00,45,20.20
2018,08,08,00,46,20.20
2018,08,08,00,47,20.10
2018,08,08,00,48,20.10
2018,08,08,00,49,20.10
2018,08,08,00,50,20.10
2018,08,08,00,51,20.10
2018,08,08,00,52,20.10
2018,08,08,00,53,20.10
2018,08,08,00,54,20.10
2018,08,08,00,55,20.10
2018,08,08,00,56,20.10
2018,08,08,00,57,20.10
2018,08,08,00,58,20.10
2018,08,08,00,59,20.10
2018,08,08,01,00,20.00
2018,08,08,01,01,20.00
2018,08,08,01,02,20.00
2018,08,08,01,03,20.00
2018,08,08,01,04,19.90
2018,08,08,01,05,19.90
2018,08,08,01,06,20.00
2018,08,08,01,07,20.00
2018,08,08,01,08,19.90
2018,08,08,01,09,20.00
2018,08,08,01,10,19.90
2018,08,08,01,11,19.90
2018,08,08,01,12,19.90
2018,08,08,01,13,19.90
2018,08,08,01,14,19.90
2018,08,08,01,15,20.00
2018,08,08,01,16,20.00
2018,08,08,01,17,20.00
2018,08,08,01,18,20.30
2018,08,08,01,19,20.40
2018,08,08,01,20,20.50
2018,08,08,01,21,20.60
2018,08,08,01,22,20.70
2018,08,08,01,23,20.80
2018,08,08,01,24,20.90
2018,08,08,01,25,21.00
2018,08,08,01,26,21.10
2018,08,08,01,27,21.20
2018,08,08,01,28,21.30
2018,08,08,01,29,21.40
2018,08,08,01,30,21.50
2018,08,08,01,31,21.50
2018,08,08,01,32,21.50
2018,08,08,01,33,21.60
2018,08,08,01,34,21.60
2018,08,08,01,35,21.50
2018,08,08,01,36,21.50
2018,08,08,01,37,21.40
2018,08,08,01,38,21.40
2018,08,08,01,39,21.40
2018,08,08,01,40,21.40
2018,08,08,01,41,21.50
2018,08,08,01,42,21.40
2018,08,08,01,43,21.30
2018,08,08,01,44,21.10
2018,08,08,01,45,21.00
2018,08,08,01,46,20.90
2018,08,08,01,47,20.90
2018,08,08,01,48,20.80
2018,08,08,01,49,20.70
2018,08,08,01,50,20.60
2018,08,08,01,51,20.60
2018,08,08,01,52,20.50
2018,08,08,01,53,20.50
2018,08,08,01,54,20.40
2018,08,08,01,55,20.40
2018,08,08,01,56,20.30
2018,08,08,01,57,20.30
2018,08,08,01,58,20.30
2018,08,08,01,59,20.20
2018,08,08,02,00,20.20
2018,08,08,02,01,20.20
2018,08,08,02,02,20.10
2018,08,08,02,03,20.10
2018,08,08,02,04,20.10
2018,08,08,02,05,20.10
2018,08,08,02,06,20.10
2018,08,08,02,07,20.00
2018,08,08,02,08,20.00
2018,08,08,02,09,20.00
2018,08,08,02,10,20.00
2018,08,08,02,11,20.00
2018,08,08,02,12,20.00
2018,08,08,02,13,20.00
2018,08,08,02,14,19.90
2018,08,08,02,15,19.90
2018,08,08,02,16,19.90
2018,08,08,02,17,19.90
2018,08,08,02,18,19.80
2018,08,08,02,19,19.80
2018,08,08,02,20,19.80
2018,08,08,02,21,19.80
2018,08,08,02,22,19.80
2018,08,08,02,23,19.70
2018,08,08,02,24,19.70
2018,08,08,02,25,19.70
2018,08,08,02,26,19.70
2018,08,08,02,27,19.60
2018,08,08,02,28,19.60
2018,08,08,02,29,19.60
2018,08,08,02,30,19.70
2018,08,08,02,31,19.70
2018,08,08,02,32,19.70
2018,08,08,02,33,19.70
2018,08,08,02,34,19.80
2018,08,08,02,35,19.80
2018,08,08,02,36,19.80
2018,08,08,02,37,19.80
2018,08,08,02,38,19.80
2018,08,08,02,39,19.80
2018,08,08,02,40,19.80
2018,08,08,02,41,19.80
2018,08,08,02,42,19.80
2018,08,08,02,43,19.80
2018,08,08,02,44,19.80
2018,08,08,02,45,19.80
2018,08,08,02,46,19.80
2018,08,08,02,47,19.80
2018,08,08,02,48,19.80
2018,08,08,02,49,19.80
2018,08,08,02,50,19.80
2018,08,08,02,51,19.80
2018,08,08,02,52,19.80
2018,08,08,02,53,19.80
2018,08,08,02,54,19.80
2018,08,08,02,55,19.80
2018,08,08,02,56,19.80
2018,08,08,02,57,19.80
2018,08,08,02,58,19.70
2018,08,08,02,59,19.70
2018,08,08,03,00,19.70
2018,08,08,03,01,19.70
2018,08,08,03,02,19.70
2018,08,08,03,03,19.60
2018,08,08,03,04,19.60
2018,08,08,03,05,19.60
2018,08,08,03,06,19.60
2018,08,08,03,07,19.50
2018,08,08,03,08,19.50
2018,08,08,03,09,19.40
2018,08,08,03,10,19.40
2018,08,08,03,11,19.40
2018,08,08,03,12,19.40
2018,08,08,03,13,19.30
2018,08,08,03,14,19.30
2018,08,08,03,15,19.30
2018,08,08,03,16,19.30
2018,08,08,03,17,19.20
2018,08,08,03,18,19.20
2018,08,08,03,19,19.20
2018,08,08,03,20,19.10
2018,08,08,03,21,19.10
2018,08,08,03,22,19.10
2018,08,08,03,23,19.10
2018,08,08,03,24,19.10
2018,08,08,03,25,19.00
2018,08,08,03,26,19.00
2018,08,08,03,27,19.00
2018,08,08,03,28,18.90
2018,08,08,03,29,18.90
2018,08,08,03,30,18.90
2018,08,08,03,31,18.80
2018,08,08,03,32,18.80
2018,08,08,03,33,18.80
2018,08,08,03,34,18.80
2018,08,08,03,35,18.70
2018,08,08,03,36,18.70
2018,08,08,03,37,18.70
2018,08,08,03,38,18.70
2018,08,08,03,39,18.70
2018,08,08,03,40,18.60
2018,08,08,03,41,18.70
2018,08,08,03,42,18.70
2018,08,08,03,43,18.60
2018,08,08,03,44,18.60
2018,08,08,03,45,18.60
2018,08,08,03,46,18.50
2018,08,08,03,47,18.50
2018,08,08,03,48,18.50
2018,08,08,03,49,18.40
2018,08,08,03,50,18.50
2018,08,08,03,51,18.50
2018,08,08,03,52,18.50
2018,08,08,03,53,18.50
2018,08,08,03,54,18.50
2018,08,08,03,55,18.50
2018,08,08,03,56,18.50
2018,08,08,03,57,18.50
2018,08,08,03,58,18.60
2018,08,08,03,59,18.50
2018,08,08,04,00,18.60
2018,08,08,04,01,18.60
2018,08,08,04,02,18.60
2018,08,08,04,03,18.60
2018,08,08,04,04,18.60
2018,08,08,04,05,18.60
2018,08,08,04,06,18.70
2018,08,08,04,07,18.70
2018,08,08,04,08,18.80
2018,08,08,04,09,18.80
2018,08,08,04,10,18.80
2018,08,08,04,11,18.90
2018,08,08,04,12,18.90
2018,08,08,04,13,18.90
2018,08,08,04,14,18.90
2018,08,08,04,15,18.90
2018,08,08,04,16,19.00
2018,08,08,04,17,19.00
2018,08,08,04,18,18.90
2018,08,08,04,19,18.90
2018,08,08,04,20,18.90
2018,08,08,04,21,18.90
2018,08,08,04,22,18.90
2018,08,08,04,23,18.90
2018,08,08,04,24,18.90
2018,08,08,04,25,18.90
2018,08,08,04,26,18.90
2018,08,08,04,27,18.80
2018,08,08,04,28,18.80
2018,08,08,04,29,18.80
2018,08,08,04,30,18.70
2018,08,08,04,31,18.70
2018,08,08,04,32,18.70
2018,08,08,04,33,18.60
2018,08,08,04,34,18.60
2018,08,08,04,35,18.60
2018,08,08,04,36,18.50
2018,08,08,04,37,18.40
2018,08,08,04,38,18.40
2018,08,08,04,39,18.40
2018,08,08,04,40,18.30
2018,08,08,04,41,18.30
2018,08,08,04,42,18.30
2018,08,08,04,43,18.30
2018,08,08,04,44,18.20
2018,08,08,04,45,18.20
2018,08,08,04,46,18.20
2018,08,08,04,47,18.20
2018,08,08,04,48,18.20
2018,08,08,04,49,18.20
2018,08,08,04,50,18.20
2018,08,08,04,51,18.20
2018,08,08,04,52,18.20
2018,08,08,04,53,18.20
2018,08,08,04,54,18.20
2018,08,08,04,55,18.20
2018,08,08,04,56,18.30
2018,08,08,04,57,18.30
2018,08,08,04,58,18.30
2018,08,08,04,59,18.30
2018,08,08,05,00,18.30
2018,08,08,05,01,18.30
2018,08,08,05,02,18.30
2018,08,08,05,03,18.30
2018,08,08,05,04,18.30
2018,08,08,05,05,18.30
2018,08,08,05,06,18.30
2018,08,08,05,07,18.30
2018,08,08,05,08,18.20
2018,08,08,05,09,18.20
2018,08,08,05,10,18.30
2018,08,08,05,11,18.20
2018,08,08,05,12,18.20
2018,08,08,05,13,18.20
2018,08,08,05,14,18.20
2018,08,08,05,15,18.20
2018,08,08,05,16,18.20
2018,08,08,05,17,18.20
2018,08,08,05,18,18.20
2018,08,08,05,19,18.20
2018,08,08,05,20,18.10
2018,08,08,05,21,18.10
2018,08,08,05,22,18.10
2018,08,08,05,23,18.10
2018,08,08,05,24,18.10
2018,08,08,05,25,18.00
2018,08,08,05,26,18.00
2018,08,08,05,27,18.00
2018,08,08,05,28,18.00
2018,08,08,05,29,17.90
2018,08,08,05,30,17.90
2018,08,08,05,31,17.90
2018,08,08,05,32,17.80
2018,08,08,05,33,17.80
2018,08,08,05,34,17.80
2018,08,08,05,35,17.80
2018,08,08,05,36,17.80
2018,08,08,05,37,17.80
2018,08,08,05,38,17.70
2018,08,08,05,39,17.70
2018,08,08,05,40,17.70
2018,08,08,05,41,17.70
2018,08,08,05,42,17.70
2018,08,08,05,43,17.70
2018,08,08,05,44,17.70
2018,08,08,05,45,17.70
2018,08,08,05,46,17.60
2018,08,08,05,47,17.60
2018,08,08,05,48,17.60
2018,08,08,05,49,17.60
2018,08,08,05,50,17.50
2018,08,08,05,51,17.50
2018,08,08,05,52,17.50
2018,08,08,05,53,17.50
2018,08,08,05,54,17.40
2018,08,08,05,55,17.40
2018,08,08,05,56,17.30
2018,08,08,05,57,17.30
2018,08,08,05,58,17.30
2018,08,08,05,59,17.20
2018,08,08,06,00,17.20
2018,08,08,06,01,17.20
2018,08,08,06,02,17.10
2018,08,08,06,03,17.10
2018,08,08,06,04,17.10
2018,08,08,06,05,17.10
2018,08,08,06,06,17.10
2018,08,08,06,07,17.10
2018,08,08,06,08,17.10
2018,08,08,06,09,17.10
2018,08,08,06,10,17.10
2018,08,08,06,11,17.10
2018,08,08,06,12,17.10
2018,08,08,06,13,17.10
2018,08,08,06,14,17.10
2018,08,08,06,15,17.10
2018,08,08,06,16,17.10
2018,08,08,06,17,17.20
2018,08,08,06,18,17.20
2018,08,08,06,19,17.30
2018,08,08,06,20,17.30
2018,08,08,06,21,17.40
2018,08,08,06,22,17.40
2018,08,08,06,23,17.40
2018,08,08,06,24,17.50
2018,08,08,06,25,17.50
2018,08,08,06,26,17.50
2018,08,08,06,27,17.50
2018,08,08,06,28,17.50
2018,08,08,06,29,17.50
2018,08,08,06,30,17.50
2018,08,08,06,31,17.50
2018,08,08,06,32,17.50
2018,08,08,06,33,17.50
2018,08,08,06,34,17.50
2018,08,08,06,35,17.50
2018,08,08,06,36,17.50
2018,08,08,06,37,17.50
2018,08,08,06,38,17.50
2018,08,08,06,39,17.50
2018,08,08,06,40,17.50
2018,08,08,06,41,17.50
2018,08,08,06,42,17.60
2018,08,08,06,43,17.60
2018,08,08,06,44,17.70
2018,08,08,06,45,17.70
2018,08,08,06,46,17.80
2018,08,08,06,47,17.80
2018,08,08,06,48,17.80
2018,08,08,06,49,17.90
2018,08,08,06,50,17.90
2018,08,08,06,51,17.90
2018,08,08,06,52,17.90
2018,08,08,06,53,18.00
2018,08,08,06,54,18.00
2018,08,08,06,55,18.00
2018,08,08,06,56,18.00
2018,08,08,06,57,18.10
2018,08,08,06,58,18.10
2018,08,08,06,59,18.10
2018,08,08,07,00,18.10
2018,08,08,07,01,18.20
2018,08,08,07,02,18.10
2018,08,08,07,03,18.10
2018,08,08,07,04,18.10
2018,08,08,07,05,18.00
2018,08,08,07,06,17.90
2018,08,08,07,07,17.80
2018,08,08,07,08,17.70
2018,08,08,07,09,17.70
2018,08,08,07,10,17.60
2018,08,08,07,11,17.50
2018,08,08,07,12,17.40
2018,08,08,07,13,17.40
2018,08,08,07,14,17.40
2018,08,08,07,15,17.30
2018,08,08,07,16,17.30
2018,08,08,07,17,17.30
2018,08,08,07,18,17.40
2018,08,08,07,19,17.40
2018,08,08,07,20,17.50
2018,08,08,07,21,17.60
2018,08,08,07,22,17.70
2018,08,08,07,23,17.80
2018,08,08,07,24,17.90
2018,08,08,07,25,18.00
2018,08,08,07,26,18.10
2018,08,08,07,27,18.20
2018,08,08,07,28,18.30
2018,08,08,07,29,18.40
2018,08,08,07,30,18.50
2018,08,08,07,31,18.60
2018,08,08,07,32,18.70
2018,08,08,07,33,18.80
2018,08,08,07,34,18.90
2018,08,08,07,35,19.00
2018,08,08,07,36,19.00
2018,08,08,07,37,19.10
2018,08,08,07,38,19.10
2018,08,08,07,39,19.30
2018,08,08,07,40,19.40
2018,08,08,07,41,19.50
2018,08,08,07,42,19.70
2018,08,08,07,43,19.80
2018,08,08,07,44,19.90
2018,08,08,07,45,20.00
2018,08,08,07,46,20.20
2018,08,08,07,47,20.20
2018,08,08,07,48,20.30
2018,08,08,07,49,20.30
2018,08,08,07,50,20.40
2018,08,08,07,51,20.40
2018,08,08,07,52,20.40
2018,08,08,07,53,20.40
2018,08,08,07,54,20.50
2018,08,08,07,55,20.50
2018,08,08,07,56,20.50
2018,08,08,07,57,20.50
2018,08,08,07,58,20.50
2018,08,08,07,59,20.50
2018,08,08,08,00,20.60
2018,08,08,08,01,20.70
2018,08,08,08,02,20.80
2018,08,08,08,03,20.80
2018,08,08,08,04,20.90
2018,08,08,08,05,21.00
2018,08,08,08,06,21.20
2018,08,08,08,07,21.30
2018,08,08,08,08,21.50
2018,08,08,08,09,21.60
2018,08,08,08,10,21.60
2018,08,08,08,11,21.70
2018,08,08,08,12,21.70
2018,08,08,08,13,21.70
2018,08,08,08,14,21.80
2018,08,08,08,15,21.80
2018,08,08,08,16,21.80
2018,08,08,08,17,21.90
2018,08,08,08,18,22.00
2018,08,08,08,19,22.10
2018,08,08,08,20,22.10
2018,08,08,08,21,22.20
2018,08,08,08,22,22.30
2018,08,08,08,23,22.40
2018,08,08,08,24,22.50
2018,08,08,08,25,22.50
2018,08,08,08,26,22.60
2018,08,08,08,27,22.70
2018,08,08,08,28,22.70
2018,08,08,08,29,22.80
2018,08,08,08,30,22.90
2018,08,08,08,31,23.00
2018,08,08,08,32,23.00
2018,08,08,08,33,23.10
2018,08,08,08,34,23.10
2018,08,08,08,35,23.10
2018,08,08,08,36,23.10
2018,08,08,08,37,23.10
2018,08,08,08,38,23.20
2018,08,08,08,39,23.20
2018,08,08,08,40,23.30
2018,08,08,08,41,23.30
2018,08,08,08,42,23.30
2018,08,08,08,43,23.30
2018,08,08,08,44,23.20
2018,08,08,08,45,23.10
2018,08,08,08,46,23.00
2018,08,08,08,47,22.90
2018,08,08,08,48,22.90
2018,08,08,08,49,22.80
2018,08,08,08,50,22.80
2018,08,08,08,51,22.70
2018,08,08,08,52,22.60
2018,08,08,08,53,22.60
2018,08,08,08,54,22.60
2018,08,08,08,55,22.60
2018,08,08,08,56,22.60
2018,08,08,08,57,22.60
2018,08,08,08,58,22.50
2018,08,08,08,59,22.50
2018,08,08,09,00,22.40
2018,08,08,09,01,22.40
2018,08,08,09,02,22.40
2018,08,08,09,03,22.40
2018,08,08,09,04,22.50
2018,08,08,09,05,22.70
2018,08,08,09,06,22.60
2018,08,08,09,07,22.50
2018,08,08,09,08,22.40
2018,08,08,09,09,22.30
2018,08,08,09,10,22.20
2018,08,08,09,11,22.10
2018,08,08,09,12,22.10
2018,08,08,09,13,22.10
2018,08,08,09,14,22.00
2018,08,08,09,15,21.90
2018,08,08,09,16,21.90
2018,08,08,09,17,21.90
2018,08,08,09,18,21.90
2018,08,08,09,19,21.80
2018,08,08,09,20,21.90
2018,08,08,09,21,22.10
2018,08,08,09,22,22.10
2018,08,08,09,23,22.20
2018,08,08,09,24,22.20
2018,08,08,09,25,22.30
2018,08,08,09,26,22.40
2018,08,08,09,27,22.50
2018,08,08,09,28,22.50
2018,08,08,09,29,22.50
2018,08,08,09,30,22.60
2018,08,08,09,31,22.60
2018,08,08,09,32,22.70
2018,08,08,09,33,22.70
2018,08,08,09,34,22.70
2018,08,08,09,35,22.70
2018,08,08,09,36,22.70
2018,08,08,09,37,22.80
2018,08,08,09,38,22.80
2018,08,08,09,39,22.90
2018,08,08,09,40,22.90
2018,08,08,09,41,23.00
2018,08,08,09,42,23.10
2018,08,08,09,43,23.20
2018,08,08,09,44,23.30
2018,08,08,09,45,23.40
2018,08,08,09,46,23.40
2018,08,08,09,47,23.40
2018,08,08,09,48,23.40
2018,08,08,09,49,23.40
2018,08,08,09,50,23.40
2018,08,08,09,51,23.40
2018,08,08,09,52,23.60
2018,08,08,09,53,23.70
2018,08,08,09,54,23.80
2018,08,08,09,55,23.90
2018,08,08,09,56,24.10
2018,08,08,09,57,24.20
2018,08,08,09,58,24.30
2018,08,08,09,59,24.30
2018,08,08,10,00,24.40
2018,08,08,10,01,24.40
2018,08,08,10,02,24.50
2018,08,08,10,03,24.50
2018,08,08,10,04,24.50
2018,08,08,10,05,24.50
2018,08,08,10,06,24.50
2018,08,08,10,07,24.60
2018,08,08,10,08,24.60
2018,08,08,10,09,24.70
2018,08,08,10,10,24.70
2018,08,08,10,11,24.70
2018,08,08,10,12,24.70
2018,08,08,10,13,24.70
2018,08,08,10,14,24.60
2018,08,08,10,15,24.40
2018,08,08,10,16,24.30
2018,08,08,10,17,24.30
2018,08,08,10,18,24.30
2018,08,08,10,19,24.20
2018,08,08,10,20,24.20
2018,08,08,10,21,24.20
2018,08,08,10,22,24.30
2018,08,08,10,23,24.30
2018,08,08,10,24,24.10
2018,08,08,10,25,23.80
2018,08,08,10,26,23.70
2018,08,08,10,27,23.50
2018,08,08,10,28,23.40
2018,08,08,10,29,23.40
2018,08,08,10,30,23.60
2018,08,08,10,31,23.80
2018,08,08,10,32,23.90
2018,08,08,10,33,24.10
2018,08,08,10,34,24.20
2018,08,08,10,35,24.30
2018,08,08,10,36,24.40
2018,08,08,10,37,24.60
2018,08,08,10,38,24.80
2018,08,08,10,39,25.00
2018,08,08,10,40,25.10
2018,08,08,10,41,25.20
2018,08,08,10,42,25.20
2018,08,08,10,43,25.20
2018,08,08,10,44,25.10
2018,08,08,10,45,25.10
2018,08,08,10,46,25.20
2018,08,08,10,47,25.20
2018,08,08,10,48,25.10
2018,08,08,10,49,25.20
2018,08,08,10,50,25.30
2018,08,08,10,51,25.30
2018,08,08,10,52,25.40
2018,08,08,10,53,25.50
2018,08,08,10,54,25.60
2018,08,08,10,55,25.70
2018,08,08,10,56,25.80
2018,08,08,10,57,25.90
2018,08,08,10,58,26.00
2018,08,08,10,59,26.10
2018,08,08,11,00,26.20
2018,08,08,11,01,26.20
2018,08,08,11,02,26.20
2018,08,08,11,03,26.00
2018,08,08,11,04,25.90
2018,08,08,11,05,25.80
2018,08,08,11,06,25.70
2018,08,08,11,07,25.80
2018,08,08,11,08,25.90
2018,08,08,11,09,26.00
2018,08,08,11,10,26.00
2018,08,08,11,11,26.00
2018,08,08,11,12,25.90
2018,08,08,11,13,25.70
2018,08,08,11,14,25.40
2018,08,08,11,15,25.10
2018,08,08,11,16,24.80
2018,08,08,11,17,24.60
2018,08,08,11,18,24.40
2018,08,08,11,19,24.30
2018,08,08,11,20,24.20
2018,08,08,11,21,24.10
2018,08,08,11,22,24.10
2018,08,08,11,23,24.10
2018,08,08,11,24,24.00
2018,08,08,11,25,24.00
2018,08,08,11,26,24.00
2018,08,08,11,27,24.00
2018,08,08,11,28,24.00
2018,08,08,11,29,24.00
2018,08,08,11,30,23.90
2018,08,08,11,31,23.90
2018,08,08,11,32,24.00
2018,08,08,11,33,24.10
2018,08,08,11,34,24.30
2018,08,08,11,35,24.60
2018,08,08,11,36,24.90
2018,08,08,11,37,25.10
2018,08,08,11,38,25.20
2018,08,08,11,39,25.40
2018,08,08,11,40,25.60
2018,08,08,11,41,25.70
2018,08,08,11,42,25.70
2018,08,08,11,43,25.70
2018,08,08,11,44,25.80
2018,08,08,11,45,25.80
2018,08,08,11,46,25.80
2018,08,08,11,47,25.90
2018,08,08,11,48,26.10
2018,08,08,11,49,26.30
2018,08,08,11,50,26.30
2018,08,08,11,51,26.30
2018,08,08,11,52,26.30
2018,08,08,11,53,26.40
2018,08,08,11,54,26.30
2018,08,08,11,55,26.30
2018,08,08,11,56,26.30
2018,08,08,11,57,26.30
2018,08,08,11,58,26.40
2018,08,08,11,59,26.40
2018,08,08,12,00,26.50
2018,08,08,12,01,26.70
2018,08,08,12,02,26.70
2018,08,08,12,03,26.60
2018,08,08,12,04,26.40
2018,08,08,12,05,26.20
2018,08,08,12,06,26.20
2018,08,08,12,07,26.30
2018,08,08,12,08,26.30
2018,08,08,12,09,26.30
2018,08,08,12,10,26.30
2018,08,08,12,11,26.40
2018,08,08,12,12,26.50
2018,08,08,12,13,26.50
2018,08,08,12,14,26.40
2018,08,08,12,15,26.40
2018,08,08,12,16,26.20
2018,08,08,12,17,26.10
2018,08,08,12,18,26.20
2018,08,08,12,19,26.20
2018,08,08,12,20,26.00
2018,08,08,12,21,25.80
2018,08,08,12,22,25.70
2018,08,08,12,23,25.40
2018,08,08,12,24,25.30
2018,08,08,12,25,25.40
2018,08,08,12,26,25.50
2018,08,08,12,27,25.60
2018,08,08,12,28,25.70
2018,08,08,12,29,25.70
2018,08,08,12,30,25.70
2018,08,08,12,31,25.70
2018,08,08,12,32,25.80
2018,08,08,12,33,25.80
2018,08,08,12,34,25.90
2018,08,08,12,35,25.80
2018,08,08,12,36,25.90
2018,08,08,12,37,25.80
2018,08,08,12,38,25.80
2018,08,08,12,39,25.80
2018,08,08,12,40,25.70
2018,08,08,12,41,25.80
2018,08,08,12,42,25.80
2018,08,08,12,43,25.80
2018,08,08,12,44,25.80
2018,08,08,12,45,25.80
2018,08,08,12,46,25.90
2018,08,08,12,47,25.90
2018,08,08,12,48,25.90
2018,08,08,12,49,25.80
2018,08,08,12,50,25.70
2018,08,08,12,51,25.80
2018,08,08,12,52,25.80
2018,08,08,12,53,25.90
2018,08,08,12,54,26.10
2018,08,08,12,55,26.20
2018,08,08,12,56,26.30
2018,08,08,12,57,26.40
2018,08,08,12,58,26.50
2018,08,08,12,59,26.70
2018,08,08,13,00,26.80
2018,08,08,13,01,26.90
2018,08,08,13,02,27.00
2018,08,08,13,03,27.10
2018,08,08,13,04,27.20
2018,08,08,13,05,27.30
2018,08,08,13,06,27.30
2018,08,08,13,07,27.30
2018,08,08,13,08,27.30
2018,08,08,13,09,27.20
2018,08,08,13,10,27.10
2018,08,08,13,11,27.10
2018,08,08,13,12,27.00
2018,08,08,13,13,26.70
2018,08,08,13,14,26.50
2018,08,08,13,15,26.30
2018,08,08,13,16,26.10
2018,08,08,13,17,25.90
2018,08,08,13,18,25.90
2018,08,08,13,19,25.90
2018,08,08,13,20,25.90
2018,08,08,13,21,25.90
2018,08,08,13,22,26.00
2018,08,08,13,23,26.20
2018,08,08,13,24,26.50
2018,08,08,13,25,26.60
2018,08,08,13,26,26.70
2018,08,08,13,27,26.70
2018,08,08,13,28,26.70
2018,08,08,13,29,26.80
2018,08,08,13,30,26.80
2018,08,08,13,31,26.90
2018,08,08,13,32,27.00
2018,08,08,13,33,27.10
2018,08,08,13,34,27.20
2018,08,08,13,35,27.30
2018,08,08,13,36,27.40
2018,08,08,13,37,27.40
2018,08,08,13,38,27.30
2018,08,08,13,39,27.30
2018,08,08,13,40,27.30
2018,08,08,13,41,27.30
2018,08,08,13,42,27.40
2018,08,08,13,43,27.60
2018,08,08,13,44,27.70
2018,08,08,13,45,27.80
2018,08,08,13,46,27.80
2018,08,08,13,47,27.80
2018,08,08,13,48,28.00
2018,08,08,13,49,28.30
2018,08,08,13,50,28.40
2018,08,08,13,51,28.50
2018,08,08,13,52,28.50
2018,08,08,13,53,28.50
2018,08,08,13,54,28.60
2018,08,08,13,55,28.60
2018,08,08,13,56,28.60
2018,08,08,13,57,28.60
2018,08,08,13,58,28.40
2018,08,08,13,59,28.30
2018,08,08,14,00,28.30
2018,08,08,14,01,28.30
2018,08,08,14,02,28.40
2018,08,08,14,03,28.40
2018,08,08,14,04,28.40
2018,08,08,14,05,28.40
2018,08,08,14,06,28.50
2018,08,08,14,07,28.70
2018,08,08,14,08,28.80
2018,08,08,14,09,28.90
2018,08,08,14,10,29.00
2018,08,08,14,11,29.00
2018,08,08,14,12,29.00
2018,08,08,14,13,29.00
2018,08,08,14,14,29.10
2018,08,08,14,15,29.30
2018,08,08,14,16,29.40
2018,08,08,14,17,29.30
2018,08,08,14,18,29.20
2018,08,08,14,19,29.20
2018,08,08,14,20,29.20
2018,08,08,14,21,29.20
2018,08,08,14,22,29.20
2018,08,08,14,23,29.10
2018,08,08,14,24,29.10
2018,08,08,14,25,29.10
2018,08,08,14,26,29.00
2018,08,08,14,27,29.00
2018,08,08,14,28,29.10
2018,08,08,14,29,29.10
2018,08,08,14,30,29.20
2018,08,08,14,31,29.30
2018,08,08,14,32,29.50
2018,08,08,14,33,29.70
2018,08,08,14,34,29.80
2018,08,08,14,35,29.90
2018,08,08,14,36,29.90
2018,08,08,14,37,29.90
2018,08,08,14,38,29.70
2018,08,08,14,39,29.60
2018,08,08,14,40,29.70
2018,08,08,14,41,29.60
2018,08,08,14,42,29.60
2018,08,08,14,43,29.60
2018,08,08,14,44,29.70
2018,08,08,14,45,29.80
2018,08,08,14,46,29.80
2018,08,08,14,47,29.90
2018,08,08,14,48,29.90
2018,08,08,14,49,30.00
2018,08,08,14,50,30.10
2018,08,08,14,51,30.20
2018,08,08,14,52,30.10
2018,08,08,14,53,30.10
2018,08,08,14,54,30.10
2018,08,08,14,55,30.30
2018,08,08,14,56,30.40
2018,08,08,14,57,30.60
2018,08,08,14,58,30.70
2018,08,08,14,59,30.80
2018,08,08,15,00,30.90
2018,08,08,15,01,31.10
2018,08,08,15,02,31.20
2018,08,08,15,03,31.20
2018,08,08,15,04,31.00
2018,08,08,15,05,30.60
2018,08,08,15,06,30.40
2018,08,08,15,07,30.40
2018,08,08,15,08,30.40
2018,08,08,15,09,30.60
2018,08,08,15,10,30.80
2018,08,08,15,11,31.00
2018,08,08,15,12,31.20
2018,08,08,15,13,31.30
2018,08,08,15,14,31.40
2018,08,08,15,15,31.30
2018,08,08,15,16,31.00
2018,08,08,15,17,30.90
2018,08,08,15,18,30.90
2018,08,08,15,19,30.90
2018,08,08,15,20,30.90
2018,08,08,15,21,31.00
2018,08,08,15,22,31.00
2018,08,08,15,23,31.10
2018,08,08,15,24,31.10
2018,08,08,15,25,31.20
2018,08,08,15,26,31.30
2018,08,08,15,27,31.30
2018,08,08,15,28,31.30
2018,08,08,15,29,31.40
2018,08,08,15,30,31.50
2018,08,08,15,31,31.50
2018,08,08,15,32,31.60
2018,08,08,15,33,31.80
2018,08,08,15,34,31.90
2018,08,08,15,35,31.90
2018,08,08,15,36,31.90
2018,08,08,15,37,31.90
2018,08,08,15,38,31.80
2018,08,08,15,39,31.80
2018,08,08,15,40,31.70
2018,08,08,15,41,31.70
2018,08,08,15,42,31.60
2018,08,08,15,43,31.60
2018,08,08,15,44,31.60
2018,08,08,15,45,31.60
2018,08,08,15,46,31.60
2018,08,08,15,47,31.60
2018,08,08,15,48,31.60
2018,08,08,15,49,31.50
2018,08,08,15,50,31.40
2018,08,08,15,51,31.20
2018,08,08,15,52,31.10
2018,08,08,15,53,31.10
2018,08,08,15,54,31.30
2018,08,08,15,55,31.30
2018,08,08,15,56,31.10
2018,08,08,15,57,30.90
2018,08,08,15,58,30.90
2018,08,08,15,59,31.00
2018,08,08,16,00,31.10
2018,08,08,16,01,31.30
2018,08,08,16,02,31.30
2018,08,08,16,03,31.30
2018,08,08,16,04,31.10
2018,08,08,16,05,30.90
2018,08,08,16,06,30.80
2018,08,08,16,07,30.70
2018,08,08,16,08,30.70
2018,08,08,16,09,30.70
2018,08,08,16,10,30.80
2018,08,08,16,11,30.60
2018,08,08,16,12,30.40
2018,08,08,16,13,30.30
2018,08,08,16,14,30.30
2018,08,08,16,15,30.40
2018,08,08,16,16,30.60
2018,08,08,16,17,30.70
2018,08,08,16,18,30.70
2018,08,08,16,19,30.80
2018,08,08,16,20,30.70
2018,08,08,16,21,30.70
2018,08,08,16,22,30.60
2018,08,08,16,23,30.60
2018,08,08,16,24,30.50
2018,08,08,16,25,30.50
2018,08,08,16,26,30.60
2018,08,08,16,27,30.70
2018,08,08,16,28,30.70
2018,08,08,16,29,30.80
2018,08,08,16,30,30.80
2018,08,08,16,31,30.80
2018,08,08,16,32,30.80
2018,08,08,16,33,30.80
2018,08,08,16,34,30.90
2018,08,08,16,35,30.90
2018,08,08,16,36,30.90
2018,08,08,16,37,31.10
2018,08,08,16,38,31.20
2018,08,08,16,39,31.20
2018,08,08,16,40,31.40
2018,08,08,16,41,31.50
2018,08,08,16,42,31.70
2018,08,08,16,43,31.80
2018,08,08,16,44,31.90
2018,08,08,16,45,31.80
2018,08,08,16,46,31.70
2018,08,08,16,47,31.70
2018,08,08,16,48,31.70
2018,08,08,16,49,31.80
2018,08,08,16,50,31.70
2018,08,08,16,51,31.70
2018,08,08,16,52,31.60
2018,08,08,16,53,31.70
2018,08,08,16,54,31.70
2018,08,08,16,55,31.80
2018,08,08,16,56,31.80
2018,08,08,16,57,31.90
2018,08,08,16,58,31.90
2018,08,08,16,59,32.00
2018,08,08,17,00,32.00
2018,08,08,17,01,32.00
2018,08,08,17,02,32.00
2018,08,08,17,03,32.10
2018,08,08,17,04,32.10
2018,08,08,17,05,32.10
2018,08,08,17,06,32.10
2018,08,08,17,07,32.00
2018,08,08,17,08,31.70
2018,08,08,17,09,31.60
2018,08,08,17,10,31.60
2018,08,08,17,11,31.60
2018,08,08,17,12,31.50
2018,08,08,17,13,31.30
2018,08,08,17,14,31.20
2018,08,08,17,15,31.00
2018,08,08,17,16,30.90
2018,08,08,17,17,30.90
2018,08,08,17,18,30.80
2018,08,08,17,19,30.70